Weather History for Westfield, MA

Change the Weather History Date:

Wednesday, October 31, 2012

  Actual Average Record
Temperature  
Mean Temperature 50 °F -  
Max Temperature 55 °F 53 °F 73 °F (1999)
Min Temperature 46 °F 33 °F 19 °F (2001)
Degree Days  
Heating Degree Days 14    
Moisture  
Dew Point 44 °F    
Average Humidity 76    
Maximum Humidity 90    
Minimum Humidity 56    
Precipitation  
Precipitation 0.09 in - - ()
Sea Level Pressure  
Sea Level Pressure 29.50 in    
Wind  
Wind Speed 7 mph (South)    
Max Wind Speed 17 mph    
Max Gust Speed 25 mph    
Visibility 10 miles    
Events Rain    
Averages and records for this station are not official NWS values.
T = Trace of Precipitation, MM = Missing Value Source: NWS Daily Summary

Daily Weather History Graph

Daily Weather History Graph

Search for Another Location

Airport:

Trip Planner

Search our weather history database for the weather conditions in past years. The results will help you decide how hot, cold, wet, or windy it might be!

Date:

Astronomy

Oct. 31, 2012 Rise Set
Actual Time 7:23 AM EDT 5:45 PM EDT
Civil Twilight 6:54 AM EDT 6:14 PM EDT
Nautical Twilight 6:20 AM EDT 6:47 PM EDT
Astronomical Twilight 5:48 AM EDT 7:19 PM EDT
Moon 6:52 PM EDT (10/31) 9:03 AM EDT (10/31)
Length of Visible Light 11h 20m
Length of Day
10h 22m
Full, 97% of the Moon is Illuminated
Oct 31
Full
Nov 6
Last Quarter
Nov 13
New
Nov 20
First Quarter
Nov 28
Full

Hourly Weather History & Observations

Time (EDT) Temp. Windchill Dew Point Humidity Pressure Visibility Wind Dir Wind Speed Gust Speed Precip Events Conditions
12:53 AM 55.9 °F - 51.1 °F 84% 29.48 in 10.0 mi East 6.9 mph - N/A   Mostly Cloudy
1:44 AM 55.4 °F - 51.8 °F 88% 29.47 in 10.0 mi East 5.8 mph - 0.00 in   Overcast
1:53 AM 55.9 °F - 52.0 °F 87% 29.47 in 10.0 mi East 5.8 mph - 0.00 in   Overcast
2:53 AM 55.9 °F - 52.0 °F 87% 29.45 in 10.0 mi South 8.1 mph - 0.02 in   Overcast
3:06 AM 55.4 °F - 51.8 °F 88% 29.45 in 10.0 mi SE 3.5 mph - N/A   Overcast
3:17 AM 55.4 °F - 51.8 °F 88% 29.45 in 10.0 mi South 3.5 mph - N/A   Overcast
3:36 AM 55.4 °F - 51.8 °F 88% 29.45 in 5.0 mi South 6.9 mph - 0.03 in Rain Rain
3:53 AM 54.0 °F - 51.1 °F 90% 29.45 in 5.0 mi SSE 4.6 mph - 0.06 in Rain Rain
4:35 AM 53.6 °F - 50.0 °F 88% 29.45 in 10.0 mi South 6.9 mph - 0.00 in   Overcast
4:50 AM 53.6 °F - 50.0 °F 88% 29.45 in 10.0 mi South 6.9 mph - 0.00 in Rain Light Rain
4:53 AM 54.0 °F - 50.0 °F 86% 29.46 in 10.0 mi South 5.8 mph - 0.00 in Rain Light Rain
5:51 AM 53.6 °F - 48.2 °F 82% 29.46 in 10.0 mi SSW 8.1 mph - 0.00 in   Overcast
5:53 AM 53.1 °F - 48.9 °F 86% 29.47 in 10.0 mi SSW 9.2 mph - 0.00 in   Overcast
6:02 AM 51.8 °F - 48.2 °F 88% 29.46 in 10.0 mi SSW 8.1 mph - N/A   Overcast
6:53 AM 50.0 °F - 45.0 °F 83% 29.49 in 9.0 mi SSW 17.3 mph 25.3 mph N/A   Overcast
7:53 AM 48.0 °F - 44.1 °F 86% 29.52 in 10.0 mi South 6.9 mph - 0.01 in Rain Light Rain
8:53 AM 46.9 °F - 43.0 °F 86% 29.52 in 10.0 mi South 5.8 mph - 0.00 in   Overcast
8:57 AM 46.4 °F 43.5 °F 42.8 °F 87% 29.51 in 10.0 mi South 5.8 mph - N/A   Overcast
9:53 AM 48.9 °F - 42.1 °F 77% 29.53 in 10.0 mi South 6.9 mph - N/A   Scattered Clouds
10:53 AM 51.1 °F - 41.0 °F 68% 29.53 in 10.0 mi South 9.2 mph - N/A   Overcast
11:53 AM 52.0 °F - 39.0 °F 61% 29.53 in 10.0 mi SSW 11.5 mph 18.4 mph 0.00 in   Overcast
12:53 PM 51.1 °F - 37.9 °F 61% 29.52 in 10.0 mi South 11.5 mph - N/A   Overcast
1:53 PM 52.0 °F - 37.9 °F 59% 29.52 in 10.0 mi South 10.4 mph 19.6 mph N/A   Overcast
2:53 PM 52.0 °F - 37.0 °F 57% 29.51 in 10.0 mi South 11.5 mph - N/A   Mostly Cloudy
3:53 PM 52.0 °F - 37.0 °F 57% 29.52 in 10.0 mi South 6.9 mph - N/A   Overcast
4:53 PM 51.1 °F - 36.0 °F 56% 29.52 in 10.0 mi South 10.4 mph - N/A   Mostly Cloudy
5:53 PM 50.0 °F - 37.0 °F 61% 29.52 in 10.0 mi South 5.8 mph - N/A   Overcast
6:53 PM 50.0 °F - 37.0 °F 61% 29.55 in 10.0 mi SSW 9.2 mph - N/A   Overcast
7:53 PM 48.9 °F - 37.0 °F 64% 29.56 in 10.0 mi SW 8.1 mph - N/A   Overcast
8:53 PM 48.0 °F - 36.0 °F 63% 29.56 in 10.0 mi SSW 9.2 mph - N/A   Overcast
9:53 PM 46.9 °F - 36.0 °F 66% 29.57 in 10.0 mi South 5.8 mph - N/A   Overcast
10:53 PM 46.0 °F 43.1 °F 36.0 °F 68% 29.56 in 10.0 mi South 5.8 mph - N/A   Overcast
11:53 PM 46.0 °F 44.8 °F 37.0 °F 71% 29.56 in 10.0 mi South 3.5 mph - N/A   Overcast